FW8003 Weather Reports


time (UTC)temp
C
wind
direction
speed
KPH
gust
KPH
rain 1hr
cm
rain 24hr
cm
rain mn
cm
humidity
%
barometer
mb
20260505015016 22 0 0.0 4.8 0.00 0.00 0.00 77 1009.2
20260505014536 22 0 1.6 8.0 0.00 0.00 0.00 77 1009.1
20260505014019 23 0 0.0 8.0 0.00 0.00 0.00 76 1009.1
20260505013515 23 0 0.0 8.0 0.00 0.00 0.00 76 1009.1
20260505013032 23 146 1.6 8.0 0.00 0.00 0.00 76 1008.8
20260505012515 23 209 1.6 4.8 0.00 0.00 0.00 75 1008.8
20260505012022 23 178 1.6 8.0 0.00 0.00 0.00 75 1008.8
20260505011538 23 183 1.6 8.0 0.00 0.00 0.00 75 1008.8
20260505011017 23 167 1.6 12.9 0.00 0.00 0.00 74 1008.8
20260505010515 23 134 0.0 12.9 0.00 0.00 0.00 74 1009.0
20260505010045 24 211 4.8 12.9 0.00 0.00 0.00 73 1008.8
20260505005515 24 181 3.2 14.5 0.00 0.00 0.00 73 1008.8
20260505005021 24 168 3.2 14.5 0.00 0.00 0.00 73 1008.8
20260505004537 24 180 4.8 14.5 0.00 0.00 0.00 73 1008.9
20260505004014 24 159 3.2 14.5 0.00 0.00 0.00 73 1009.0
20260505003515 24 143 1.6 12.9 0.00 0.00 0.00 73 1008.9
20260505003045 24 171 3.2 12.9 0.00 0.00 0.00 72 1008.8
20260505002519 24 142 3.2 11.3 0.00 0.00 0.00 72 1008.8
20260505002017 25 135 1.6 11.3 0.00 0.00 0.00 72 1008.9
20260505001535 25 286 1.6 11.3 0.00 0.00 0.00 72 1009.0
20260505001018 25 199 4.8 14.5 0.00 0.00 0.00 72 1008.9
20260505000515 25 192 4.8 14.5 0.00 0.00 0.00 71 1008.9
20260505000039 25 197 3.2 17.7 0.00 0.00 0.00 71 1008.9
20260504235517 25 205 1.6 17.7 0.00 0.00 0.00 71 1009.0
20260504235017 25 88 4.8 17.7 0.00 0.00 0.00 70 1009.0
20260504234539 25 0 1.6 8.0 0.00 0.00 0.00 70 1008.9
20260504234016 25 191 3.2 12.9 0.00 0.00 0.00 70 1009.0
20260504233516 25 230 3.2 12.9 0.00 0.00 0.00 70 1009.1
20260504233045 25 254 3.2 12.9 0.00 0.00 0.00 69 1009.0
20260504232518 25 82 3.2 14.5 0.00 0.00 0.00 69 1009.0
20260504232015 26 178 4.8 14.5 0.00 0.00 0.00 68 1009.0
20260504231537 26 234 3.2 11.3 0.00 0.00 0.00 68 1009.1
20260504231016 26 151 3.2 16.1 0.00 0.00 0.00 68 1009.2
20260504230516 26 192 6.4 16.1 0.00 0.00 0.00 67 1009.3
20260504230043 26 164 3.2 14.5 0.00 0.00 0.00 68 1009.3
20260504225517 26 217 1.6 11.3 0.00 0.00 0.00 68 1009.3
20260504225017 26 197 1.6 11.3 0.00 0.00 0.00 68 1009.3
20260504224536 26 154 3.2 11.3 0.00 0.00 0.00 67 1009.3
20260504224017 26 117 1.6 8.0 0.00 0.00 0.00 68 1009.3
20260504223517 26 159 1.6 9.7 0.00 0.00 0.00 67 1009.4
20260504223034 26 204 0.0 14.5 0.00 0.00 0.00 68 1009.6
20260504222517 26 224 4.8 14.5 0.00 0.00 0.00 66 1009.6
20260504222018 26 161 4.8 17.7 0.00 0.00 0.00 66 1009.5
20260504221538 26 168 4.8 17.7 0.00 0.00 0.00 66 1009.6
20260504221017 26 128 6.4 17.7 0.00 0.00 0.00 66 1009.6
20260504220516 26 205 3.2 11.3 0.00 0.00 0.00 65 1009.8
20260504220038 26 180 1.6 11.3 0.00 0.00 0.00 66 1009.9
20260504215520 26 178 1.6 11.3 0.00 0.00 0.00 65 1009.8
20260504215016 27 143 3.2 14.5 0.00 0.00 0.00 64 1009.8
20260504214542 27 146 3.2 14.5 0.00 0.00 0.00 63 1009.9
20260504214019 27 193 3.2 14.5 0.00 0.00 0.00 65 1010.0
20260504213518 27 250 1.6 9.7 0.00 0.00 0.00 63 1010.2
20260504213041 27 223 3.2 9.7 0.00 0.00 0.00 63 1010.2
20260504212516 27 218 1.6 14.5 0.00 0.00 0.00 64 1010.2
20260504212019 27 239 1.6 14.5 0.00 0.00 0.00 63 1010.3
20260504211534 27 91 1.6 9.7 0.00 0.00 0.00 63 1010.4
20260504211019 27 192 3.2 9.7 0.00 0.00 0.00 64 1010.6
20260504210522 27 0 0.0 11.3 0.00 0.00 0.00 66 1010.6
20260504210050 27 188 1.6 11.3 0.00 0.00 0.00 64 1010.7
20260504205518 27 163 3.2 12.9 0.00 0.00 0.00 63 1010.7
20260504205019 27 190 1.6 19.3 0.00 0.00 0.00 63 1010.7
20260504204543 27 216 6.4 19.3 0.00 0.00 0.00 62 1010.7
20260504204019 27 185 1.6 11.3 0.00 0.00 0.00 65 1011.0
20260504203516 26 244 1.6 11.3 0.00 0.00 0.00 65 1011.1
20260504203039 26 92 1.6 12.9 0.00 0.00 0.00 65 1011.3
20260504202519 26 223 3.2 14.5 0.00 0.00 0.00 66 1011.2
20260504202018 26 194 3.2 14.5 0.00 0.00 0.00 65 1011.4
20260504201536 26 216 4.8 14.5 0.00 0.00 0.00 65 1011.6
20260504201018 26 203 1.6 6.4 0.00 0.00 0.00 66 1011.6
20260504200518 26 224 1.6 11.3 0.00 0.00 0.00 66 1011.7
20260504200050 26 229 1.6 14.5 0.00 0.00 0.00 65 1011.7
20260504195515 26 212 3.2 17.7 0.00 0.00 0.00 65 1011.8
20260504195019 26 196 8.0 17.7 0.00 0.00 0.00 63 1011.9
20260504194538 26 179 4.8 12.9 0.00 0.00 0.00 64 1012.1
20260504194018 26 153 3.2 11.3 0.00 0.00 0.00 63 1012.1
20260504193521 26 134 3.2 14.5 0.00 0.00 0.00 62 1012.1
20260504193039 26 96 1.6 14.5 0.00 0.00 0.00 63 1012.2
20260504192518 26 135 6.4 14.5 0.00 0.00 0.00 61 1012.3
20260504192019 26 200 3.2 14.5 0.00 0.00 0.00 63 1012.3
20260504191537 26 129 6.4 14.5 0.00 0.00 0.00 63 1012.3
20260504191020 26 195 4.8 14.5 0.00 0.00 0.00 64 1012.2
20260504190522 26 116 3.2 12.9 0.00 0.00 0.00 63 1012.4
20260504190032 26 201 3.2 14.5 0.00 0.00 0.00 67 1012.7
20260504185518 26 217 4.8 14.5 0.00 0.00 0.00 65 1012.8
20260504185022 26 76 3.2 16.1 0.00 0.00 0.00 64 1012.8
20260504184539 26 245 3.2 16.1 0.00 0.00 0.00 66 1012.8
20260504184018 25 81 3.2 14.5 0.00 0.00 0.00 64 1012.8
20260504183520 25 113 3.2 16.1 0.00 0.00 0.00 66 1012.9
20260504183038 25 160 3.2 17.7 0.00 0.00 0.00 65 1012.9
20260504182516 25 209 4.8 19.3 0.00 0.00 0.00 65 1012.9
20260504182021 26 180 8.0 19.3 0.00 0.00 0.00 63 1013.0
20260504181538 26 229 4.8 16.1 0.00 0.00 0.00 64 1013.0
20260504181017 26 242 4.8 16.1 0.00 0.00 0.00 63 1013.1
20260504180516 26 145 6.4 17.7 0.00 0.00 0.00 65 1013.1
20260504180037 25 138 1.6 19.3 0.00 0.00 0.00 66 1013.1
20260504175518 26 227 4.8 19.3 0.00 0.00 0.00 65 1013.2
20260504175016 25 234 3.2 11.3 0.00 0.00 0.00 65 1013.2
20260504174535 25 171 3.2 17.7 0.00 0.00 0.00 63 1013.2
20260504174021 25 168 6.4 17.7 0.00 0.00 0.00 63 1013.3
20260504173517 25 163 1.6 9.7 0.00 0.00 0.00 65 1013.4
20260504173034 25 234 3.2 11.3 0.00 0.00 0.00 66 1013.5
20260504172519 25 214 4.8 14.5 0.00 0.00 0.00 67 1013.4
20260504172017 25 157 4.8 14.5 0.00 0.00 0.00 65 1013.6
20260504171535 25 97 1.6 12.9 0.00 0.00 0.00 68 1013.8
20260504171017 25 162 4.8 12.9 0.00 0.00 0.00 65 1013.8
20260504170517 25 149 3.2 9.7 0.00 0.00 0.00 67 1013.9
20260504151021 22 180 4.8 12.9 0.00 0.00 0.00 71 1014.6
20260504150516 22 62 4.8 11.3 0.00 0.00 0.00 71 1014.7
20260504141022 20 124 1.6 9.7 0.00 0.00 0.00 74 1014.6
20260504140519 19 130 1.6 11.3 0.00 0.00 0.00 75 1014.6
20260504130516 15 180 1.6 6.4 0.00 0.00 0.00 84 1014.5
20260504110516 13 0 0.0 0.0 0.00 0.00 0.00 89 1014.0
20260504100520 13 0 0.0 0.0 0.00 0.00 0.00 87 1014.6
20260504081539 14 0 0.0 0.0 0.00 0.00 0.00 83 1015.1
20260504081018 14 0 0.0 0.0 0.00 0.00 0.00 82 1015.2
20260504080524 14 0 0.0 0.0 0.00 0.00 0.00 82 1015.3
20260504050517 16 0 0.0 0.0 0.00 0.00 0.00 75 1017.1
20260504045516 16 0 0.0 0.0 0.00 0.00 0.00 73 1017.0
20260504045025 16 0 0.0 0.0 0.00 0.00 0.00 73 1017.1
20260504044532 16 0 0.0 0.0 0.00 0.00 0.00 74 1017.1
20260504044021 16 0 0.0 1.6 0.00 0.00 0.00 74 1017.2
20260504043518 16 0 0.0 1.6 0.00 0.00 0.00 74 1017.3
20260504043044 16 0 0.0 1.6 0.00 0.00 0.00 73 1017.2
20260504042518 16 156 0.0 1.6 0.00 0.00 0.00 73 1017.1
20260504042017 16 0 0.0 1.6 0.00 0.00 0.00 74 1017.2
20260504041536 17 0 0.0 1.6 0.00 0.00 0.00 73 1017.3
20260504041017 17 0 0.0 1.6 0.00 0.00 0.00 73 1017.1
20260504040519 17 0 0.0 1.6 0.00 0.00 0.00 72 1017.2
20260504040042 17 0 0.0 1.6 0.00 0.00 0.00 73 1017.3
20260504035517 17 0 0.0 1.6 0.00 0.00 0.00 71 1017.2
20260504035019 17 0 0.0 3.2 0.00 0.00 0.00 71 1017.2
20260504034545 17 156 0.0 3.2 0.00 0.00 0.00 70 1017.2
20260504034017 17 168 0.0 3.2 0.00 0.00 0.00 70 1017.3
20260504033517 17 0 0.0 1.6 0.00 0.00 0.00 70 1017.3
20260504033035 17 0 0.0 3.2 0.00 0.00 0.00 70 1017.3
20260504032519 17 151 0.0 3.2 0.00 0.00 0.00 70 1017.3
20260504032018 17 0 0.0 3.2 0.00 0.00 0.00 71 1017.4
20260504031544 17 175 0.0 3.2 0.00 0.00 0.00 71 1017.3
20260504031018 17 137 0.0 3.2 0.00 0.00 0.00 71 1017.2
20260504030517 17 0 0.0 1.6 0.00 0.00 0.00 72 1017.2
20260504030041 18 0 0.0 1.6 0.00 0.00 0.00 72 1017.1
20260504025517 18 0 0.0 1.6 0.00 0.00 0.00 71 1017.0
20260504025021 18 0 0.0 1.6 0.00 0.00 0.00 71 1016.9
20260504024539 18 0 0.0 1.6 0.00 0.00 0.00 68 1016.9
20260504024019 18 0 0.0 0.0 0.00 0.00 0.00 68 1016.9
20260504023517 18 0 0.0 0.0 0.00 0.00 0.00 67 1016.9
20260504023036 18 0 0.0 1.6 0.00 0.00 0.00 67 1016.7
20260504022517 19 0 0.0 1.6 0.00 0.00 0.00 66 1016.6
20260504022018 19 0 0.0 1.6 0.00 0.00 0.00 65 1016.5
20260504021544 19 0 0.0 1.6 0.00 0.00 0.00 66 1016.5
20260504021017 20 0 0.0 1.6 0.00 0.00 0.00 65 1016.5
20260504020516 20 0 0.0 1.6 0.00 0.00 0.00 64 1016.5
20260504020038 20 0 0.0 1.6 0.00 0.00 0.00 64 1016.5
20260504015518 20 0 0.0 1.6 0.00 0.00 0.00 63 1016.5
20260504015020 20 0 0.0 1.6 0.00 0.00 0.00 62 1016.5